{"data":{"norad_id":57352,"epoch":"2026-09-20T21:40:10.737984Z","epoch_age_seconds":89360,"freshness":"FRESH","line1":"1 57352U 23099AA  26263.90290206  .00000038  00000+0  10901-4 0  9997","line2":"2 57352  43.0010 219.3054 0001016 255.2957 104.7782 15.27576295176056","mean_motion":15.27576295,"eccentricity":0.0001016,"inclination_deg":43.001,"raan_deg":219.3054,"arg_perigee_deg":255.2957,"mean_anomaly_deg":104.7782,"bstar":1.0901e-5,"rev_number":17605,"period_min":94.266977349239,"perigee_km":482.36309253042,"apogee_km":483.75728779946,"semimajor_km":6861.1971901649,"source":"CELESTRAK","updated_at":"2026-09-21T09:00:33.600808Z"}}